Starlink 31729

operational
NORAD ID: 59610 Int'l Des: 2024-080 Owner: SPXS Country: US Constellation: starlink
LEOCIRCULAR

Über Starlink 31729

Beschreibung wird geladen...

Live-Position

3D-Globus wird geladen...

Nächste Überflüge

Höhenverlauf

Altitude vs Time

uPlot chart will show altitude changes over time

Zweizeiliger Elementsatz

1 59610U 24080K 25350.15047562 .00001861 00000-0 77144-4 0 9993
2 59610 43.0027 146.4746 0001373 269.9589 90.1105 15.27574144 91795
Epoch: 16. Dez. 2025 • Age: 22 hours

Aktueller Status

Höhe 492.1 km
Geschwindigkeit 7.62 km/s
Subsatellitenpunkt -34.66°S, 12.12°W
Startdatum 28. Apr. 2024
Alter 1.6 years
Typ internet

Technische Details

Klassifizierung Payload
Masse 730.00 kg
Trockenmasse 700.00 kg
Gesamtmasse 730.00 kg
Länge 0.30 m
Durchmesser 4.10 m
Spannweite 29.00 m
Form Box + pan
Hersteller SPXS
Bus-Typ Starlink V2M
Phasenstatus In Orbit
Besitzer/Staat SPXS/US

Große Konstellationen

Loading constellations...